Location: Igon
(43.1667°N, 0.2333°W)
Time: 14:31:55
(UTC+00:00)

Atlas Centaur 2 - Pass Details

Date: 29 November 2020
Orbit: 459 x 1309 km, 30.4° (Epoch: 24 January)

Event Time Altitude Azimuth Distance (km) Brightness Sun altitude
Exits shadow 06:09:54 - 247° (WSW) 3,317 4.8 -11.0°
Reaches altitude 10° 06:12:14 10° 237° (WSW) 2,597 4.4 -10.6°
Maximum altitude 06:16:41 21° 190° (S) 1,727 4.0 -9.8°
Drops below altitude 10° 06:20:28 10° 142° (SE) 2,161 5.4 -9.2°
Sets 06:23:07 0° 126° (SE) 2,934 6.9 -8.7°
